Tracking 28794 objects as of 19-Apr-2024
HD Live streaming from Space Station
objects crossing your sky now

COSMOS 2491 DEB

Track COSMOS 2491 DEB now!
10-day predictions


NORAD ID: 44998
Int'l Code: 2013-076T
Perigee: 1,333.7 km
Apogee: 1,497.8 km
Inclination: 82.5 °
Period: 114.0 minutes
Semi major axis: 7786 km
RCS: Unknown
Launch date: December 25, 2013
Source: Commonwealth of Independent States (former USSR) (CIS)
Launch site: PLESETSK MISSILE AND SPACE COMPLEX (PKMTR)

Note: This is SATELLITE DEBRIS
Your satellite tracking list
Your tracking list is empty




NASA's NSSDC Master Catalog

Two Line Element Set (TLE):
1 44998U 13076S   24108.16379099  .00004092  00000-0  21977-1 0  9992
2 44998  82.4688 266.2047 0105393 161.6431 198.8510 12.63488785197205
Source of the keplerian elements: AFSPC